Location: *
(6.1770°N, 170.5260°W)
Time: 18:28:08
(UTC+00:00)

Daily predictions for brighter satellites

Satellite Brightness Start Highest point End
(mag) Time Altitude Azimuth Time Altitude Azimuth Time Altitude Azimuth
Atlas Centaur 2 3.6 14:07:21 53° NE 14:07:21 53° NE 14:13:43 10° NE
USA 215 4.4 14:05:37 10° NE 14:10:06 37° E 14:10:06 37° E
ADEOS II 4.0 14:15:36 10° NE 14:18:30 26° ENE 14:18:30 26° ENE
Cosmos 2263 Rocket 3.8 14:25:30 28° NNE 14:25:30 28° NNE 14:28:01 10° NNE
GPS 2-15 Rocket1 4.4 14:57:00 36° NNE 14:57:00 36° NNE 15:00:53 10° E
PAYLOAD B 4.3 14:51:19 10° NNE 14:56:29 74° ENE 14:56:29 74° ENE
ARIANE 5 DEB (SYLDA) 3.9 15:07:51 47° SE 15:07:51 47° SE 15:14:02 10° E
Nadezhda 4 Rocket 4.3 15:04:59 33° SSE 15:07:50 65° E 15:14:00 10° NNE
Cosmos 1869 Rocket 4.4 15:10:19 45° N 15:10:19 45° N 15:13:25 10° N
Cosmos 1844 Rocket 4.1 15:06:51 18° SSE 15:10:08 32° ESE 15:15:02 10° NE
Okean O Rocket 3.0 15:06:40 10° N 15:08:56 30° N 15:08:56 30° N
GP-B 4.2 15:09:28 10° N 15:12:03 35° NNW 15:12:03 35° NNW
ARIANE DEB (SYLDA) 2.7 15:17:33 46° SSE 15:17:33 46° SSE 15:22:13 10° E
CZ-4C R/B 4.2 15:14:14 10° SSE 15:17:39 19° ESE 15:21:07 10° ENE
Cosmos 1763 Rocket 3.7 15:14:29 10° N 15:19:35 68° ENE 15:24:38 10° SSE
Palapa 6 Rocket 4.4 15:21:15 46° SW 15:23:46 74° SSE 15:31:51 10° ENE
Cosmos 1814 Rocket 3.9 15:19:01 10° NNW 15:24:20 72° WSW 15:26:27 37° S
Cosmos 489 Rocket 4.5 15:25:39 28° S 15:29:10 81° E 15:35:28 10° NNE
ISS -2.5 15:30:20 36° ESE 15:30:20 36° ESE 15:32:27 10° SE
Centaur D-1AR AC-40 4.4 15:14:17 22° W 15:29:42 47° NNW 15:35:31 10° NE
Cosmos 1603 3.9 15:25:32 10° N 15:31:09 70° ENE 15:36:44 10° SSE
Cosmos 332 Rocket 3.9 15:27:16 10° NNW 15:31:33 52° W 15:31:33 52° W
Sakura Rocket 4.1 15:31:13 44° W 15:33:07 67° NNW 15:40:53 10° NE
Cosmos 1634 Rocket 4.4 15:31:28 10° NNW 15:37:02 37° W 15:37:13 37° W
Cosmos 2279 Rocket 3.9 15:31:00 10° N 15:37:12 76° W 15:43:27 10° S
Hubble Space Telescope 0.7 15:38:13 61° SSW 15:38:13 61° SSW 15:42:15 10° SE
Meteor PRIRODA 3.5 15:36:07 10° N 15:39:44 68° WNW 15:39:49 67° W
Cosmos 1777 Rocket 4.3 15:37:13 18° S 15:41:10 67° ESE 15:46:24 10° NNE
ERS-2 4.3 15:38:55 10° NE 15:42:01 25° ESE 15:45:07 10° SSE
Ariane H10 3.5 15:39:26 36° WSW 15:42:06 76° S 16:08:28 10° E
Meteor 2-20 4.4 15:39:46 10° S 15:45:51 84° E 15:51:57 10° N
Okean 1-7 3.7 15:41:56 10° N 15:46:05 54° E 15:50:15 10° SSE
Okean-O 2.8 15:41:44 10° NNE 15:46:09 72° ESE 15:49:52 14° S
Centaur D AC-29 2.7 15:45:40 15° NW 15:46:45 18° NNW 15:49:32 10° NNE
Delta 7925 Rocket 4.3 15:47:22 31° WSW 15:49:28 39° SSW 15:54:39 10° SE
Cosmos 1092 Rocket 3.9 15:45:58 11° S 15:51:54 71° W 15:58:12 10° N
CZ-4B R/B 3.7 15:48:06 10° N 15:51:56 68° W 15:53:58 27° SSW
CCE 1 Rocket 4.3 15:50:42 32° WSW 15:53:07 76° NNW 16:01:22 10° ENE
NOSS 3-4 (A) 3.9 15:46:13 10° NNW 15:53:42 68° WSW 16:01:27 10° SSE
NOSS 3-4 (C) 3.9 15:46:19 10° NNW 15:53:48 69° WSW 16:01:34 10° SSE
CZ-4B R/B 4.1 15:49:59 10° NNW 15:54:27 27° WNW 15:55:29 25° W
USA 215 4.3 15:49:02 10° N 15:54:28 29° NW 15:57:28 20° W
CZ-2C R/B 4.4 15:51:02 10° SSE 15:55:30 57° ENE 16:00:02 10° N
Atlas Centaur 2 4.3 15:49:58 15° WNW 15:55:32 29° NNW 16:02:39 10° NNE
Stardust Del rocket 1.9 15:57:24 71° SW 15:57:27 71° SSW 16:00:17 10° ESE
ADEOS II 3.7 15:56:37 10° NW 15:59:28 16° WNW 15:59:28 16° WNW
Cosmos 1733 Rocket 3.0 15:56:56 10° S 16:01:22 83° W 16:05:47 10° N
ARIANE 44L R/B 2.3 15:57:57 22° W 16:01:26 85° S 16:03:54 10° E
Cosmos 2221 Rocket 3.5 15:59:28 10° N 16:03:56 71° W 16:08:23 10° S
Cosmos 540 Rocket 4.0 15:59:22 10° N 16:04:26 61° ENE 16:09:29 10° SSE
Ariane H10-3 2.9 16:09:39 14° S 16:09:39 14° S 16:10:49 10° SSE
NOAA 6 4.0 16:04:36 10° N 16:09:47 84° WNW 16:14:57 10° SSW
SWIFT 4.1 16:07:05 12° WNW 16:10:00 23° NNW 16:13:24 10° NE
Cosmos 1606 3.3 16:06:48 10° N 16:10:39 61° E 16:14:29 10° SSE
EO 1 Del DPAF 3.2 16:07:49 10° S 16:11:40 86° W 16:15:29 10° NNW
Meteor 1-31 Rocket 3.9 16:12:14 10° NNW 16:15:30 26° WNW 16:17:23 18° WSW
Cosmos 1943 3.2 16:12:26 10° NNW 16:18:04 88° ENE 16:23:44 10° SSE
Cosmos 1844 3.8 16:13:00 10° SSW 16:18:43 63° WNW 16:24:23 10° N
FUSE 4.4 16:13:47 10° NW 16:19:01 61° NNE 16:24:16 10° ESE
Cosmos 1825 3.7 16:19:16 17° WSW 16:20:05 18° W 16:22:41 10° NW
Cosmos 1408 4.3 16:20:45 15° W 16:21:12 15° W 16:23:24 10° NW
Ariane H10+ 3.2 16:19:58 14° WSW 16:23:51 29° SSW 16:26:16 10° SE
Cosmos 1782 2.9 16:23:07 10° NNW 16:27:01 54° W 16:30:59 10° S
USA 116 3.9 16:23:57 10° SSE 16:28:22 86° ENE 16:32:13 10° N
Cosmos 1655 Rocket 4.0 16:23:01 10° S 16:29:25 79° W 16:35:48 10° N
Cosmos 2278 Rocket 2.4 16:24:45 10° S 16:30:24 77° ESE 16:36:03 10° NNE
Meteor 1-10 Rocket 4.3 16:29:23 10° NNW 16:34:56 62° W 16:40:36 10° S
CZ-4 R/B 4.3 16:33:50 10° ENE 16:36:33 17° E 16:39:15 10° SE
Cosmos 2026 Rocket 4.3 16:30:31 10° SSW 16:36:34 49° W 16:42:33 10° NNW
GPS 2-15 Rocket1 3.1 16:36:12 10° WNW 16:40:50 71° SSW 16:45:32 10° ESE
RESURS DK-1 2.3 16:37:35 10° NNW 16:41:44 80° WSW 16:45:52 10° SSE
Cosmos 1674 Rocket 4.4 16:40:19 10° N 16:44:41 56° E 16:49:03 10° SSE
CZ-3 R/B 3.8 16:30:17 10° NW 16:44:50 31° N 16:49:51 10° ENE
